Regional Weather Roundup
Issued by NWS

Home | Current Version | Previous Version | Text Only | Print | Product List | Glossary Off
Versions: 1 2 3 4 5 6 7 8 9 10 11 12 13 14 15 16 17 18 19 20 21 22 23 24 25 26 27 28 29 30 31 32 33 34 35 36 37 38 39 40 41 42 43 44 45 46 47 48 49 50

000
ASUS43 KLOT 010609
RWRIL

ILLINOIS REGIONAL WEATHER ROUNDUP
NATIONAL WEATHER SERVICE CHICAGO/ROMEOVILLE IL
100 AM CDT WED JUL 01 2015

NOTE: "FAIR" INDICATES FEW OR NO CLOUDS BELOW 12,000 FEET WITH NO
SIGNIFICANT WEATHER AND/OR OBSTRUCTIONS TO VISIBILITY.

* THESE STATIONS ARE NOT UNDER NWS QUALITY CONTROL. THEY ALSO MAY NOT
  REPORT WEATHER SUCH AS PRECIPITATION OR FOG.

ILZ001-002-007-009-015-016-024-010700-
NORTHWEST ILLINOIS

CITY           SKY/WX    TMP DP  RH WIND       PRES   REMARKS
MOLINE         MOCLDY    66  61  84 CALM      29.89
6HR MIN TEMP:  66; 6HR MAX TEMP:  79;

STERLING*      PTCLDY    64  61  88 N5        29.90R
SAVANNA*       MOCLDY    64  59  86 N3        29.91S
$$

ILZ003-004-008-010-011-017-018-010700-
NORTH CENTRAL ILLINOIS

CITY           SKY/WX    TMP DP  RH WIND       PRES   REMARKS
ROCKFORD       MOCLDY    61  56  83 E6        29.93R
6HR MIN TEMP:  61; 6HR MAX TEMP:  74;

FREEPORT*      MOCLDY    61  57  86 CALM      29.94R
ROCHELLE*      PTCLDY    60  58  93 E5        29.92R
DE KALB*       PTCLDY    56  53  91 E9        29.92F
PERU*          CLEAR     65  63  92 E7        29.90S
$$

ILZ005-006-012>014-019>023-010700-
NORTHEAST ILLINOIS

CITY           SKY/WX    TMP DP  RH WIND       PRES   REMARKS
CHICAGO-OHARE  PTCLDY    57  51  80 N8        29.92
6HR MIN TEMP:  57; 6HR MAX TEMP:  66;

CHICAGO-MIDWAY PTCLDY    61  54  77 N7        29.92
6HR MIN TEMP:  61; 6HR MAX TEMP:  68;

AURORA         PTCLDY    60  54  80 E7        29.92
6HR MIN TEMP:  60; 6HR MAX TEMP:  74;

LANSING*       MOCLDY    59  53  79 N6        29.91F
JOLIET*        CLEAR     60  57  89 NE3       29.92R
WAUKEGAN       CLEAR     54  50  86 N6          N/A
6HR MIN TEMP:  54; 6HR MAX TEMP:  59;

DUPAGE AIRPORT MOCLDY    58  53  84 NE6       29.92
6HR MIN TEMP:  58; 6HR MAX TEMP:  71;

KANKAKEE*      CLEAR     60  59  97 CALM      29.92R FOG
WHEELING       PTCLDY    56  51  84 NE5       29.94
6HR MIN TEMP:  56; 6HR MAX TEMP:  64;

MORRIS*        CLEAR     60  57  91 E7        29.88F
ROMEOVILLE*    MOCLDY    60  55  86 NE8       29.92R
NORTHERLY ISL    N/A     58  53  84 N9          N/A
$$

LMZ740>746-010700-
SOUTHERN LAKE MICHIGAN

STATION/POSITION SKY/WX   TEMP    WIND        PRES    VSBY  WAVE
                          AIR SEA DIR/SP/G                  HT/PER
                          (F)     (DEG/KT/KT) (MB)    (MI)  (FT/S)
HARRISON CRIB              58     360/ 11/ 13   N/A
BURNHAM HARBOR             58      10/  6/ 10   N/A
CALUMET HARBOR             59     360/  6/  7   N/A
BURNS HARBOR               60     350/  7/  9 1013.5S
MICHIGAN CITY              60     320/  9/ 11   N/A
MICHIGAN CITY 6N           60 65  340/  8/ 10   N/A           3/ 5
ST. JOSEPH                 62 64                N/A           4/ 5
$$

ILZ025>027-034>036-040-047-049-050-058-095>099-010700-
WEST-CENTRAL ILLINOIS

CITY           SKY/WX    TMP DP  RH WIND       PRES   REMARKS
QUINCY         CLOUDY    71  68  90 CALM      29.89
GALESBURG*     MOCLDY    67  62  85 CALM      29.91R
MACOMB*        MOCLDY    68  67  98 NE5       29.92R FOG
JACKSONVILLE*  MOCLDY    71  69  93 SW3       29.90R
PITTSFIELD*    MOCLDY    71  68  90 CALM      29.91S
$$

ILZ028>032-037-038-041>044-048-051>054-059>061-010700-
CENTRAL ILLINOIS

CITY           SKY/WX    TMP DP  RH WIND       PRES   REMARKS
PONTIAC        CLEAR     63  62  96 E7        29.92S
BLOOMINGTON    PTCLDY    66  64  93 E3        29.92R
DECATUR        PTCLDY    66  63  90 CALM      29.90
PEORIA         MOCLDY    69  63  81 CALM      29.89
6HR MIN TEMP:  69; 6HR MAX TEMP:  81; 6HR PCP: TRACE;

LACON*         PTCLDY    63  62  94 CALM      29.89S
LINCOLN*       MOCLDY    67  64  88 CALM      29.90S
SPRINGFIELD    MOCLDY    69  67  93 CALM      29.90R FOG
6HR MIN TEMP:  69; 6HR MAX TEMP:  81;

TAYLORVILLE    MOCLDY    64  64 100 CALM      29.90S FOG
$$

ILZ033-039-045-046-055>057-062-063-010700-
EAST-CENTRAL ILLINOIS

CITY           SKY/WX    TMP DP  RH WIND       PRES   REMARKS
CHAMPAIGN      CLEAR     64  61  90 CALM      29.90  FOG
DANVILLE*      PTCLDY    63  62  97 NE3       29.88R FOG
RANTOUL*       CLEAR     67  64  89 NE5       29.91R
MATTOON        FOG       65  64  97 CALM      29.89S VSB 1/2
PARIS*         CLEAR     63  63  98 CALM      29.90S FOG
$$

ILZ079-100>102-010700-
SOUTHWEST ILLINOIS

CITY           SKY/WX    TMP DP  RH WIND       PRES   REMARKS
ALTON          CLOUDY    68  68 100 CALM      29.91S
BELLEVILLE     MOCLDY    71  71 100 CALM      29.89S
CAHOKIA*       MOCLDY    72  69  90 CALM      29.90
SPARTA*        MOCLDY    72  70  91 SW3       29.92S
$$

ILZ064>066-069>071-074>076-080>082-084>086-088>090-092>094-010700-
SOUTH-CENTRAL ILLINOIS

CITY           SKY/WX    TMP DP  RH WIND       PRES   REMARKS
CARBONDALE     PTCLDY    71  68  90 CALM      29.91
6HR MIN TEMP:  71; 6HR MAX TEMP:  81;

CAIRO*         MOCLDY    77  71  80 SW3       29.91F
EFFINGHAM*     PTCLDY    69  66  90 CALM      29.91F FOG
MARION         PTCLDY    72  70  94 CALM      29.92S
MT. VERNON     PTCLDY    68  63  83 CALM      29.91S
CENTRALIA*     MOCLDY    69  66  91 CALM      29.91S
SALEM*         MOCLDY    70  67  91 CALM      29.91R FOG
METROPOLIS*    MOCLDY    74  72  91 CALM      29.93S
$$

ILZ067-068-072-073-078-083-087-091-010700-
SOUTHEAST ILLINOIS

CITY           SKY/WX    TMP DP  RH WIND       PRES   REMARKS
LAWRENCEVILLE  PTCLDY    71  69  93 CALM      29.89
FLORA*         PTCLDY    69  67  94 CALM      29.91R
FAIRFIELD*     PTCLDY    69  68  97 CALM      29.89S
HARRISBURG*    MOCLDY    71  71  99 CALM      29.92S
ROBINSON*      CLEAR     66  65  97 CALM      29.90S FOG
CARMI*         MOCLDY    72  65  79 SW5       29.90S
$$

ABBREVIATIONS USED IN REMARKS
   TC - TEMPERATURE IN CELSIUS
  WCI - WIND CHILL INDEX
   HX - HEAT INDEX
  VSB - VISIBILITY
$$




USA.gov is the U.S. government's official web portal to all federal, state and local government web resources and services.